• In Lithuania
  • List of Countries
  • For 7 days
  • Water Temperature
  • Satellite Maps
  • Weather Map
  • Weather Widgets
  • user-avatar
    Login

    Hourly Weather Karpovka

    Today, 17 July, Tuesday

    Time Temperature Precipitation Wind Pressure Humidity
    00:00 +22°C° 0 mm 4 mps 750 mmHg 79%
    01:00 +21°C° 0 mm 4 mps 750 mmHg 80%
    02:00 +21°C° 0 mm 4 mps 750 mmHg 81%
    03:00 +21°C° 0 mm 4 mps 750 mmHg 82%
    04:00 +21°C° 0 mm 4 mps 750 mmHg 81%
    05:00 +21°C° 0 mm 4 mps 750 mmHg 81%
    06:00 +22°C° 0 mm 5 mps 750 mmHg 81%
    07:00 +23°C° 0.1 mm 5 mps 750 mmHg 73%
    08:00 +26°C° 0.1 mm 6 mps 750 mmHg 66%
    09:00 +28°C° 0.1 mm 6 mps 750 mmHg 58%
    10:00 +28°C° 0.6 mm 7 mps 750 mmHg 55%
    11:00 +29°C° 0.6 mm 7 mps 750 mmHg 52%
    12:00 +30°C° 0.6 mm 7 mps 750 mmHg 50%
    13:00 +31°C° 0.2 mm 8 mps 750 mmHg 47%
    14:00 +31°C° 0.2 mm 8 mps 750 mmHg 45%
    15:00 +32°C° 0.2 mm 8 mps 750 mmHg 43%
    16:00 +31°C° 0 mm 8 mps 750 mmHg 43%
    17:00 +29°C° 0 mm 8 mps 750 mmHg 44%
    18:00 +29°C° 0 mm 8 mps 750 mmHg 45%
    19:00 +27°C° 0 mm 7 mps 750 mmHg 48%
    20:00 +26°C° 0 mm 6 mps 750 mmHg 52%
    21:00 +25°C° 0 mm 5 mps 751 mmHg 56%
    22:00 +23°C° 0 mm 5 mps 751 mmHg 59%
    23:00 +23°C° 0 mm 5 mps 751 mmHg 62%

    Tomorrow, 18 July, Wednesday

    Time Temperature Precipitation Wind Pressure Humidity
    00:00 +22°C° 0 mm 5 mps 751 mmHg 65%
    01:00 +22°C° 0 mm 5 mps 751 mmHg 69%
    02:00 +22°C° 0 mm 5 mps 751 mmHg 72%
    03:00 +22°C° 0 mm 5 mps 751 mmHg 76%
    04:00 +22°C° 0 mm 5 mps 751 mmHg 76%
    05:00 +22°C° 0 mm 5 mps 751 mmHg 77%
    06:00 +22°C° 0 mm 5 mps 751 mmHg 77%
    07:00 +24°C° 0 mm 6 mps 751 mmHg 69%
    08:00 +26°C° 0 mm 6 mps 751 mmHg 60%
    09:00 +28°C° 0 mm 7 mps 751 mmHg 52%
    10:00 +29°C° 0 mm 7 mps 751 mmHg 49%
    11:00 +30°C° 0 mm 6 mps 751 mmHg 46%
    12:00 +32°C° 0 mm 6 mps 751 mmHg 43%
    13:00 +32°C° 0 mm 6 mps 751 mmHg 42%
    14:00 +32°C° 0 mm 6 mps 751 mmHg 41%
    15:00 +33°C° 0 mm 6 mps 751 mmHg 40%
    16:00 +32°C° 0 mm 6 mps 751 mmHg 41%
    17:00 +32°C° 0 mm 5 mps 751 mmHg 41%
    18:00 +32°C° 0 mm 5 mps 751 mmHg 42%
    19:00 +29°C° 0 mm 4 mps 751 mmHg 46%
    20:00 +28°C° 0 mm 3 mps 751 mmHg 50%
    21:00 +26°C° 0 mm 2 mps 752 mmHg 54%
    22:00 +25°C° 0 mm 2 mps 752 mmHg 55%
    23:00 +25°C° 0 mm 1 mps 752 mmHg 57%

    Day after tomorrow, 19 July, Thursday

    Time Temperature Precipitation Wind Pressure Humidity
    00:00 +24°C° 0 mm 1 mps 752 mmHg 58%
    01:00 +24°C° 0 mm 1 mps 752 mmHg 58%
    02:00 +24°C° 0 mm 1 mps 752 mmHg 59%
    03:00 +24°C° 0 mm 1 mps 752 mmHg 59%
    04:00 +24°C° 0.4 mm 1 mps 752 mmHg 62%
    05:00 +24°C° 0.4 mm 1 mps 752 mmHg 65%
    06:00 +24°C° 0.4 mm 1 mps 752 mmHg 67%
    07:00 +24°C° 0.4 mm 1 mps 752 mmHg 67%
    08:00 +25°C° 0.4 mm 1 mps 752 mmHg 66%
    09:00 +26°C° 0.4 mm 2 mps 753 mmHg 65%
    10:00 +27°C° 0.2 mm 2 mps 753 mmHg 62%
    11:00 +28°C° 0.2 mm 2 mps 753 mmHg 58%
    12:00 +30°C° 0.2 mm 3 mps 753 mmHg 54%
    13:00 +31°C° 0.2 mm 3 mps 752 mmHg 50%
    14:00 +33°C° 0.2 mm 3 mps 752 mmHg 46%
    15:00 +34°C° 0.2 mm 3 mps 752 mmHg 41%
    16:00 +34°C° 0 mm 3 mps 752 mmHg 43%
    17:00 +33°C° 0 mm 3 mps 752 mmHg 45%
    18:00 +31°C° 0 mm 2 mps 752 mmHg 47%
    19:00 +30°C° 0 mm 2 mps 752 mmHg 51%
    20:00 +28°C° 0 mm 2 mps 753 mmHg 56%
    21:00 +27°C° 0 mm 2 mps 753 mmHg 60%
    22:00 +26°C° 0 mm 2 mps 753 mmHg 62%
    23:00 +26°C° 0 mm 2 mps 753 mmHg 64%

    20 July, Friday

    Time Temperature Precipitation Wind Pressure Humidity
    00:00 +25°C° 0 mm 2 mps 753 mmHg 67%
    01:00 +25°C° 0.1 mm 1 mps 753 mmHg 69%
    02:00 +24°C° 0.1 mm 1 mps 753 mmHg 71%
    03:00 +24°C° 0.1 mm 1 mps 753 mmHg 73%
    04:00 +24°C° 0.2 mm 1 mps 753 mmHg 73%
    05:00 +25°C° 0.2 mm 1 mps 753 mmHg 73%
    06:00 +23°C° 0.2 mm 0 mps 753 mmHg 73%
    07:00 +27°C° 0 mm 1 mps 753 mmHg 66%
    08:00 +29°C° 0 mm 1 mps 753 mmHg 59%
    09:00 +30°C° 0 mm 2 mps 753 mmHg 52%
    10:00 +32°C° 0 mm 2 mps 753 mmHg 47%
    11:00 +34°C° 0 mm 2 mps 753 mmHg 43%
    12:00 +35°C° 0 mm 2 mps 753 mmHg 38%
    13:00 +35°C° 0 mm 2 mps 753 mmHg 38%
    14:00 +35°C° 0 mm 2 mps 753 mmHg 38%
    15:00 +35°C° 0 mm 2 mps 752 mmHg 37%
    16:00 +35°C° 0 mm 2 mps 752 mmHg 38%
    17:00 +34°C° 0 mm 1 mps 752 mmHg 39%
    18:00 +34°C° 0 mm 1 mps 752 mmHg 40%
    19:00 +32°C° 0.2 mm 1 mps 752 mmHg 45%
    20:00 +30°C° 0.2 mm 1 mps 753 mmHg 49%
    21:00 +28°C° 0.2 mm 2 mps 753 mmHg 54%
    22:00 +28°C° 0.7 mm 2 mps 753 mmHg 59%
    23:00 +27°C° 0.7 mm 2 mps 753 mmHg 64%

    21 July, Saturday

    Time Temperature Precipitation Wind Pressure Humidity
    00:00 +26°C° 0.7 mm 1 mps 753 mmHg 69%
    01:00 +25°C° 0.8 mm 1 mps 753 mmHg 71%
    02:00 +25°C° 0.8 mm 1 mps 753 mmHg 73%
    03:00 +24°C° 0.8 mm 1 mps 753 mmHg 75%
    04:00 +25°C° 0.2 mm 1 mps 753 mmHg 75%
    05:00 +23°C° 0.2 mm 0 mps 753 mmHg 75%
    06:00 +23°C° 0.2 mm 0 mps 753 mmHg 74%
    07:00 +27°C° 0 mm 1 mps 753 mmHg 68%
    08:00 +28°C° 0 mm 1 mps 753 mmHg 61%
    09:00 +30°C° 0 mm 2 mps 753 mmHg 54%
    10:00 +32°C° 0 mm 2 mps 753 mmHg 49%
    11:00 +34°C° 0 mm 2 mps 753 mmHg 43%
    12:00 +35°C° 0 mm 3 mps 753 mmHg 37%
    13:00 +36°C° 0 mm 3 mps 753 mmHg 35%
    14:00 +36°C° 0 mm 3 mps 753 mmHg 33%
    15:00 +37°C° 0 mm 3 mps 753 mmHg 31%
    16:00 +36°C° 0 mm 3 mps 753 mmHg 33%
    17:00 +36°C° 0 mm 3 mps 753 mmHg 34%
    18:00 +35°C° 0 mm 2 mps 753 mmHg 36%
    19:00 +34°C° 0.1 mm 2 mps 753 mmHg 40%
    20:00 +31°C° 0.1 mm 2 mps 753 mmHg 43%
    21:00 +29°C° 0.1 mm 2 mps 753 mmHg 47%
    22:00 +28°C° 0.1 mm 2 mps 753 mmHg 50%
    23:00 +28°C° 0.1 mm 2 mps 753 mmHg 52%

    22 July, Sunday

    Time Temperature Precipitation Wind Pressure Humidity
    00:00 +27°C° 0.1 mm 2 mps 753 mmHg 55%
    01:00 +26°C° 0.1 mm 2 mps 753 mmHg 58%
    02:00 +26°C° 0.1 mm 2 mps 753 mmHg 61%
    03:00 +26°C° 0.1 mm 1 mps 753 mmHg 65%
    04:00 +26°C° 0 mm 1 mps 753 mmHg 65%
    05:00 +26°C° 0 mm 1 mps 753 mmHg 66%
    06:00 +24°C° 0 mm 0 mps 753 mmHg 67%
    07:00 +28°C° 0 mm 1 mps 753 mmHg 61%
    08:00 +30°C° 0 mm 1 mps 753 mmHg 54%
    09:00 +32°C° 0 mm 1 mps 753 mmHg 48%
    10:00 +33°C° 0 mm 1 mps 753 mmHg 44%
    11:00 +35°C° 0 mm 2 mps 753 mmHg 40%
    12:00 +36°C° 0 mm 2 mps 753 mmHg 36%
    13:00 +36°C° 0 mm 2 mps 752 mmHg 36%
    14:00 +36°C° 0 mm 2 mps 752 mmHg 35%
    15:00 +36°C° 0 mm 2 mps 752 mmHg 35%
    16:00 +35°C° 0 mm 1 mps 752 mmHg 37%
    17:00 +34°C° 0 mm 1 mps 752 mmHg 38%
    18:00 +34°C° 0 mm 1 mps 752 mmHg 39%
    19:00 +33°C° 0.1 mm 1 mps 752 mmHg 42%
    20:00 +32°C° 0.1 mm 1 mps 752 mmHg 45%
    21:00 +30°C° 0.1 mm 1 mps 752 mmHg 48%
    22:00 +30°C° 0.4 mm 1 mps 752 mmHg 50%
    23:00 +29°C° 0.4 mm 1 mps 752 mmHg 53%
    Show more